Location: Ar Ranvel
(48.3000°N, 4.8833°W)
Time: 15:45:47
(UTC+00:00)

Lacrosse 5 rocket - Pass Details

Date: 16 June 2021
Orbit: 460 x 634 km, 57.0° (Epoch: 30 July)

Event Time Altitude Azimuth Distance (km) Brightness Sun altitude
Rises 22:25:14 0° 222° (SW) 2,531 4.5 -13.8°
Reaches altitude 10° 22:27:25 10° 218° (SW) 1,636 3.5 -14.0°
Maximum altitude 22:31:00 58° 139° (SE) 546 0.9 -14.2°
Drops below altitude 10° 22:34:33 10° 60° (ENE) 1,612 3.8 -14.5°
Sets 22:36:41 0° 56° (NE) 2,489 4.8 -14.6°
